Showing default

ORBCOMM FM 26, 25480

Orbit data source: Space-Track

ORBCOMM FM 26, 25480 is a payload satellite owned by Orbcomm (US) in LEO that was launched on Wed, 23 Sep 1998 UTC via a PEGASUS XL/HAPS launch vehicle from the Pegasus Launch, Eastern Range Air Space (ERAS). Payload-class satellites include a variety of spacecraft equipped with specific instruments for various scientific and technological missions. These include communications satellites like Starlink; space stations such as the ISS; scientific satellites like the Hubble; Earth observation satellites from companies like Planet Labs, Umbra, and HawkEye 360; GPS; miniature CubeSats for education and research; and military/defense satellites.

Loading next visibility...
Identifier
25480, 1998-053F
Orbit
LEO
Country
Flag of USUS / ORB
Related business
Manufacturer
OSC-Germantown
Mission
Non-operational Commercial Communications
Bus & Motor
MICROSTAR, Unknown motor
Mass
42 kg wet, 42 kg dry
Launch date (UTC)
1998-09-23 (27 years ago)
Launch vehicle
PEGASUS XL/HAPS
Launch site
Pegasus Launch, Eastern Range Air Space (ERAS)
Object type
Payload
Rocket body
Debris
Shape & HBR
Cyl + 2 Pan, 2.1 m
Radar Cross Section
1.484 m², Large (>1 m²)

Expand to show TLE details & history
Last TLE update: 20 hours ago

TLE from 20 hours ago
0 ORBCOMM FM 26
1 25480U 98053F   25348.79679167  .00001223  00000-0  45060-3 0  9994
2 25480  45.0055 128.5253 0006271  98.7222 261.4337 14.37600025423634
Epoch: 2025-12-14T19:07Z
TLE epoch observation values (Epoch: 2025-12-14T19:07:22.800Z)
Latitude
0.00002°
Longitude
117.97576°
Altitude
767.108 km
Speed
7.472 km/s
True Right ascension
08h 34m 06s
True Declination
0° 00' 00"
Sunlit
Object was in full shadow at epoch
Visualization orbit readout
Latitude
Unknown
Longitude
Unknown
Altitude
Unknown
Speed
Unknown
Apparent Right ascension
Unknown
Apparent Declination
Unknown
Sunlit
N/A
Visualization observer readout
Local Sidereal Time
13:23:41
Azimuth
Unknown
Elevation
Unknown
Doppler factor
Unknown
Orbital elements
Apogee altitude
772.465 km
Perigee altitude
763.502 km
Semi-major axis
7,146.121 km
Eccentricity
0.00063
Inclination
45.0055°
RAAN
128.5253°
Arg. of periapsis
98.7222°
True anomaly
261.36265°
Mean anomaly
261.4337°
Eccentric anomaly
261.39817°
Mean motion
3.59284 °/min
Orbital period
100.2 mins
BSTAR
0.0004506
Loading maneuver chart data...
Computing Atmospheric mass density...
Loading historical data...
Loading historical data...
Loading historical data...
Loading historical data...
Loading historical data...
Loading historical data...
Loading historical data...

Documentation

Showing up to 5 results
|